Location: Newark
(50.0306°N, 2.3272°E)
Time: 10:59:44
(UTC+00:00)

Transit 2A Rocket - Pass Details

Date: 06 December 2019
Orbit: 593 x 910 km, 66.7° (Epoch: 27 January)

Event Time Altitude Azimuth Distance (km) Brightness Sun altitude
Rises 01:00:05 0° 326° (NW) 2,848 - -58.4°
Reaches altitude 10° 01:02:23 10° 333° (NNW) 1,956 - -58.2°
Maximum altitude 01:06:35 45° 46° (NE) 858 - -57.7°
Drops below altitude 10° 01:11:00 10° 120° (ESE) 2,055 - -57.3°
Sets 01:13:27 0° 126° (SE) 3,010 - -57.0°
